Regional Weather Roundup
Issued by NWS Little Rock, AR

Home | Current Version | Previous Version | Text Only | Print | Product List | Glossary Off
Versions: 1 2 3 4 5 6 7 8 9 10 11 12 13 14 15 16 17 18 19 20 21 22 23 24 25 26 27 28 29 30 31 32

000
ASUS44 KLZK 261212
RWRLZK

WEATHER ROUNDUP FOR ARKANSAS
NATIONAL WEATHER SERVICE LITTLE ROCK AR
700 AM CDT SUN MAR 26 2017

NOTE: "FAIR" INDICATES FEW OR NO CLOUDS BELOW 12,000 FEET WITH NO
SIGNIFICANT WEATHER AND/OR OBSTRUCTIONS TO VISIBILITY.

ARZ001-003-010-029-261300-
NORTHWEST ARKANSAS

CITY           SKY/WX    TMP DP  RH WIND       PRES   REMARKS
FAYETTEVILLE   FOG       42  42 100 CALM      29.93R VSB 1/4
6HR MIN TEMP:  40; 6HR MAX TEMP:  47;

FORT SMITH     CLEAR     45  42  89 CALM      29.94R
6HR MIN TEMP:  43; 6HR MAX TEMP:  53;

HARRISON       CLOUDY    48  45  89 NW3       29.94R
6HR MIN TEMP:  48; 6HR MAX TEMP:  48;

BENTONVILLE    CLEAR     43  41  93 CALM      29.93S
6HR MIN TEMP:  43; 6HR MAX TEMP:  46;

ROGERS         MOCLDY    43  42  97 E5        29.93S
6HR MIN TEMP:  42; 6HR MAX TEMP:  46;

SILOAM SPGS    CLOUDY    39  37  93 CALM      29.92S VSB 1/4
6HR MIN TEMP:  39; 6HR MAX TEMP:  46;

HIGHFILL       FOG       44  43  96 CALM      29.92R VSB 1/4
6HR MIN TEMP:  42; 6HR MAX TEMP:  47;

SPRINGDALE     CLOUDY    45  45 100 CALM      29.94S FOG
$$

ARZ004-005-016-261300-
NORTH CENTRAL ARKANSAS

CITY           SKY/WX    TMP DP  RH WIND       PRES   REMARKS
BATESVILLE     CLOUDY    52  46  82 CALM      29.96R
6HR MIN TEMP:  48; 6HR MAX TEMP:  54;

FLIPPIN        CLOUDY    50  43  76 CALM      29.92R
6HR MIN TEMP:  50; 6HR MAX TEMP:  52;

MTN HOME       CLOUDY    49  45  86 CALM      29.93R
6HR MIN TEMP:  48; 6HR MAX TEMP:  50;

$$

ARZ040-041-261300-
WEST CENTRAL ARKANSAS

CITY           SKY/WX    TMP DP  RH WIND       PRES   REMARKS
MENA           CLEAR     45  43  93 CALM      29.93S
MOUNT IDA      PTCLDY    43  41  93 CALM      29.92R
6HR MIN TEMP:  43; 6HR MAX TEMP:  50;

$$

ARZ009-017-025-026-028-261300-
NORTHEAST ARKANSAS

CITY           SKY/WX    TMP DP  RH WIND       PRES   REMARKS
CORNING        CLOUDY    54  50  87 SW7       29.94S
JONESBORO      CLOUDY    54  50  86 CALM      29.95R
6HR MIN TEMP:  51; 6HR MAX TEMP:  56;

NEWPORT        CLOUDY    53  50  89 CALM      29.96R
6HR MIN TEMP:  53; 6HR MAX TEMP:  54;

WALNUT RIDGE   CLOUDY    52  46  82 SW5       29.95R
6HR MIN TEMP:  52; 6HR MAX TEMP:  54;

BLYTHEVILLE    CLOUDY    56  53  90 CALM      29.95R
6HR MIN TEMP:  54; 6HR MAX TEMP:  59;

$$

ARZ022-023-033-042-044-261300-
CENTRAL ARKANSAS

CITY           SKY/WX    TMP DP  RH WIND       PRES   REMARKS
LITTLE ROCK    PTCLDY    46  46 100 CALM      29.96R
6HR MIN TEMP:  46; 6HR MAX TEMP:  51;

N LITTLE ROCK    N/A     46  44  93 CALM      29.96R
6HR MIN TEMP:  46; 6HR MAX TEMP:  50;

JACKSONVILLE   CLEAR     43  43  99 CALM      29.95R
6HR MIN TEMP:  43; 6HR MAX TEMP:  51;

CONWAY           N/A     45  45 100 CALM      29.94R FOG
SEARCY         PTCLDY    45  45 100 CALM      29.97R
6HR MIN TEMP:  45; 6HR MAX TEMP:  53;

HOT SPRINGS    FOG       49  49 100 CALM      29.95R VSB 1/4
6HR MIN TEMP:  46; 6HR MAX TEMP:  51;

RUSSELLVILLE   CLEAR     43  42  97 CALM      29.94R
6HR MIN TEMP:  43; 6HR MAX TEMP:  48;

CLINTON        MOCLDY    45  45 100 CALM      29.95R
$$

ARZ036-261300-
EAST ARKANSAS

CITY           SKY/WX    TMP DP  RH WIND       PRES   REMARKS
WEST MEMPHIS   CLOUDY    54  50  86 CALM      29.94R
6HR MIN TEMP:  52; 6HR MAX TEMP:  60;

$$

ARZ050-053-066-070-073-261300-
SOUTHWEST ARKANSAS

CITY           SKY/WX    TMP DP  RH WIND       PRES   REMARKS
ARKADELPHIA    FAIR      48  48 100 CALM      29.97R
6HR MIN TEMP:  48; 6HR MAX TEMP:  55;

CAMDEN         FOG       46  45  93 CALM      29.96R VSB 1
TEXARKANA      PTCLDY    50  48  93 CALM      29.94R
6HR MIN TEMP:  48; 6HR MAX TEMP:  57;

EL DORADO      CLEAR     47  46  97 CALM      29.95R
6HR MIN TEMP:  47; 6HR MAX TEMP:  53;

DE QUEEN       CLEAR     44  44 100 CALM      29.92R FOG
6HR MIN TEMP:  44; 6HR MAX TEMP:  50;

$$

ARZ056-057-069-261300-
SOUTHEAST ARKANSAS

CITY           SKY/WX    TMP DP  RH WIND       PRES   REMARKS
PINE BLUFF     CLEAR     49  47  93 CALM      29.96R
6HR MIN TEMP:  48; 6HR MAX TEMP:  53;

STUTTGART      CLEAR     48  39  71 W5        29.97R
6HR MIN TEMP:  48; 6HR MAX TEMP:  54;

MONTICELLO     CLEAR     48  47  96 CALM      29.95R
6HR MIN TEMP:  48; 6HR MAX TEMP:  55;


$$






USA.gov is the U.S. government's official web portal to all federal, state and local government web resources and services.